OpenBCM V1.13 (Linux)

Packet Radio Mailbox

DB0FHN

[JN59NK Nuernberg]

 Login: GUEST





  
WG3K   > KEPS     12.01.25 02:25l 325 Lines 15467 Bytes #999 (0) @ AMSAT
BID : ORB25011.1
Read: DL5MBW DJ6UX GUEST
Subj: 2Line Orbital Elements 25011.AMSAT
Path: DB0FHN<DB0FFL<OE2XZR<OE6XPE<DB0ERF<IZ3LSV<I0OJJ<EA2RCF<LU9DCE<LW2DQC<
      W0ARP<K5DAT<N3HYM<WG3K
Sent: 250112/0008Z 12309@WG3K.#SMD.MD.USA.NOAM LinBPQ6.0.24


QST de W1STR

AMSAT Orbital Elements for Amateur Satellites in TLE Format
From Orbital Analysis Office
New England Sci-Tech STEM Education Center
Natick, MA January 11, 2025
To all radio amateurs


These element sets describe the orbits of various satellites 
in use by the amateur radio community. For details see:
www.amsat.org/keplerian-elements-formats/

A daily update of element sets is available at:
www.amsat.org/tle/daily-bulletin.txt
or without bulletin text:
www.amsat.org/tle/dailytle.txt


AO-07
1 07530U 74089B   25010.48611617 -.00000017  00000-0  18491-3 0  9990
2 07530 101.9912  13.1668 0012367  49.3239 106.5466 12.53684875295018
UO-11
1 14781U 84021B   25010.33834957  .00002470  00000-0  27179-3 0  9998
2 14781  97.7338 339.9645 0009438 108.8953 251.3288 14.88453609179281
AO-27
1 22825U 93061C   25010.42164298  .00000228  00000-0  10456-3 0  9993
2 22825  98.7610  71.0729 0008289 185.7917 174.3170 14.30704507632244
FO-29
1 24278U 96046B   25010.51469399  .00000056  00000-0  92944-4 0  9995
2 24278  98.5890 284.0461 0350225  11.4535 349.4320 13.53230974402474
NOAA-15
1 25338U 98030A   25010.82279858  .00000316  00000-0  14779-3 0  9999
2 25338  98.5510  39.4501 0011306  79.1228 281.1224 14.26853326387045
GO-32
1 25397U 98043D   25010.49649354  .00000203  00000-0  10819-3 0  9999
2 25397  98.9516 346.6442 0000383 323.7216  36.3936 14.24231737376924
ISS
1 25544U 98067A   25010.50479572  .00015800  00000-0  27470-3 0  9994
2 25544  51.6409   8.1238 0006475  65.9825  76.9258 15.50958763490702
NO-44
1 26931U 01043C   25010.51772212  .00000448  00000-0  19911-3 0  9994
2 26931  67.0503 155.7860 0006318 261.0671  98.9716 14.31577431215629
SO-50
1 27607U 02058C   25010.60197921  .00002899  00000-0  38934-3 0  9998
2 27607  64.5555 303.1839 0038122  13.7623 346.4512 14.80733194187011
CO-55
1 27844U 03031E   25010.51316416  .00000669  00000-0  31174-3 0  9997
2 27844  98.6778  20.7296 0008624 262.6531  97.3667 14.23758815117284
CO-57
1 27848U 03031J   25010.46336951  .00000555  00000-0  26514-3 0  9997
2 27848  98.6807  20.7957 0008524 281.4514  78.5707 14.23128078117013
RS-22
1 27939U 03042A   25010.79470828  .00002202  00000-0  36238-3 0  9993
2 27939  98.3090 176.8373 0012504 121.4100 350.8563 14.71563612138791
NOAA-18
1 28654U 05018A   25010.77400955  .00000331  00000-0  19928-3 0  9993
2 28654  98.8575  91.8702 0014153 191.0644 169.0219 14.13483019 12583
CO-58
1 28895U 05043F   25010.34507576  .00002785  00000-0  47329-3 0  9999
2 28895  98.2251 153.1482 0015880  64.7412 295.5437 14.69886723 24860
CO-65
1 32785U 08021C   25010.48918636  .00007179  00000-0  55886-3 0  9998
2 32785  97.7683 341.0351 0010290  22.0242 338.1422 15.01506390906602
AAUSAT2
1 32788U 08021F   25010.49036967  .00061951  00000-0  14737-2 0  9997
2 32788  97.6043   0.5673 0006005 118.1255 242.0598 15.41405621909966
CO-66
1 32791U 08021J   25010.39456158  .00015332  00000-0  88305-3 0  9993
2 32791  97.7134 347.9008 0003907 356.4002   3.7199 15.12505459907748
RS-30
1 32953U 08025A   25010.79089477  .00000025  00000-0  10875-3 0  9997
2 32953  82.5055 320.3552 0020120  15.0849 345.0826 12.43157007754926
NOAA-19
1 33591U 09005A   25010.89784442  .00000302  00000-0  18516-3 0  9998
2 33591  99.0205  74.6284 0014588  68.5939 291.6787 14.13256630820961
SRMSAT
1 37841U 11058D   25010.59183804  .00000561  00000-0  16146-3 0  9997
2 37841  19.9736 342.1297 0011712 214.3421 301.9577 14.11334491683894
ZACUBE-1
1 39417U 13066B   25010.30139633  .00006742  00000-0  62598-3 0  9998
2 39417  97.7612 328.5817 0045859 191.1082 168.9130 14.93921312602455
Delfi-N3xt
1 39428U 13066N   25010.19975501  .00008045  00000-0  89001-3 0  9995
2 39428  97.8382 289.9173 0091695 133.5801 227.3072 14.84560528596731
GOMX-1
1 39430U 13066Q   25010.85281324  .00004029  00000-0  64440-3 0  9992
2 39430  97.7026 238.6157 0134177 311.7484  47.2312 14.66459129593457
LO-74
1 39440U 13066AA  25010.26956265  .00007624  00000-0  81478-3 0  9995
2 39440  97.8344 316.2693 0063782 316.7817  42.8404 14.87553448599077
AO-73
1 39444U 13066AE  25010.83805892  .00010263  00000-0  84935-3 0  9995
2 39444  97.7460 332.9779 0043422 164.6057 195.6498 14.98336985601727
DTUSAT-2
1 40030U 14033W   25010.31743002  .00010533  00000-0  75669-3 0  9994
2 40030  98.0357 335.4637 0009095 200.0493 160.0375 15.04448713573771
EO-80
1 40032U 14033Y   25010.34592415  .00009034  00000-0  64843-3 0  9995
2 40032  98.0265 335.3503 0010503 136.5531 223.6523 15.04520646573759
XW-2C
1 40906U 15049H   25010.82023770  .00228510  00000-0  11274-2 0  9990
2 40906  97.4493  43.0938 0001591 233.3064 126.8058 15.81489568516761
LILACSAT-2
1 40908U 15049K   25010.48984446  .00013405  00000-0  41335-3 0  9997
2 40908  97.5177  27.6769 0010071 348.6615  11.4398 15.33671897515184
IO-86
1 40931U 15052B   24337.09180034  .00002217  00000-0  20975-3 0  9992
2 40931   5.9986 232.5457 0013173 302.5393  57.3463 14.78392648496340
Horyu-4
1 41340U 16012D   25010.46834117  .00020970  00000-0  75188-3 0  9994
2 41340  30.9992  54.4954 0006457 288.9783  71.0160 15.27498355489740
Lapan A3
1 41603U 16040E   25010.83268746  .00005016  00000-0  18539-3 0  9998
2 41603  97.1385  21.4843 0013423  84.4579 275.8191 15.28070384474906
CAS-2T
1 41847U 16066G   25010.43730445  .00002055  00000-0  30555-3 0  9994
2 41847  98.4391  86.1648 0347793 272.4337  83.7085 14.42686728429367
CAS-4B
1 42759U 17034B   25010.62683289  .00039929  00000-0  85238-3 0  9995
2 42759  43.0122 122.0637 0016156 322.7100  37.2636 15.44057300419286
CAS-4A
1 42761U 17034D   25010.60150013  .00049351  00000-0  10365-2 0  9998
2 42761  43.0160 120.2744 0017058 330.0804  29.9078 15.44439238419298
TechnoSat
1 42829U 17042E   25010.30601157  .00005588  00000-0  45416-3 0  9999
2 42829  97.3911 186.3316 0014576  88.8421 271.4473 14.99880465408182
AO-91
1 43017U 17073E   25010.58273799  .00015783  00000-0  86597-3 0  9993
2 43017  97.5480 245.3075 0186942 317.2085  41.4712 15.00457579386685
S-Net D
1 43186U 18014G   25010.26495503  .00007614  00000-0  48338-3 0  9995
2 43186  97.5764 274.8623 0010730  29.7073 330.4763 15.09108644379680
S-Net B
1 43187U 18014H   25010.46758792  .00008433  00000-0  53501-3 0  9998
2 43187  97.5770 275.0260 0011312  24.1159 336.0598 15.09098019379715
S-Net A
1 43188U 18014J   25010.46471654  .00008321  00000-0  52771-3 0  9992
2 43188  97.5776 275.1552 0011242  25.2069 334.9706 15.09116593379717
S-Net C
1 43189U 18014K   25010.27076039  .00007888  00000-0  50065-3 0  9991
2 43189  97.5790 274.9514 0012611  17.3938 342.7720 15.09090726378235
Ten-Koh
1 43677U 18084G   25010.42621827  .00003448  00000-0  28929-3 0  9990
2 43677  98.0823 176.8198 0014569  49.2171 311.0312 14.99000152337733
PO-101
1 43678U 18084H   25010.53648387  .00002854  00000-0  25288-3 0  9998
2 43678  98.0874 181.1690 0009746  68.6021 291.6238 14.97060389337923
QO-100
1 43700U 18090A   25010.11646817  .00000153  00000-0  00000-0 0  9993
2 43700   0.0251  35.8807 0003044 295.0486 206.6724  1.00271889 22434
MinXSS-2
1 43758U 18099A   25010.59515780  .00019225  00000-0  93016-3 0  9993
2 43758  97.5269  76.7390 0013107 326.2263  33.8135 15.18556345334157
AO-95
1 43770U 18099N   25010.13737385  .00011925  00000-0  68320-3 0  9993
2 43770  97.5178  70.1656 0012309  20.0760 340.0952 15.12693447333773
RANGE-A
1 43773U 18099R   25010.36997269  .00006455  00000-0  43903-3 0  9992
2 43773  97.4733  63.1750 0011784 353.7858   6.3221 15.06609037333584
MOVE-II
1 43780U 18099Y   25010.42355187  .00049079  00000-0  13530-2 0  9995
2 43780  97.4917  79.8640 0004252 337.4873  22.6184 15.36952664334508
SNUSat 2
1 43782U 18099AA  25010.13177770  .00010093  00000-0  61022-3 0  9999
2 43782  97.4862  68.0529 0011978 319.0591  40.9738 15.10792933333758
SnugLite
1 43784U 18099AC  25010.39629088  .00010991  00000-0  62614-3 0  9998
2 43784  97.4675  67.6499 0003077 340.1017  20.0094 15.12974051333896
ITASat 1
1 43786U 18099AE  25010.39359310  .00007730  00000-0  48296-3 0  9995
2 43786  97.4824  68.2041 0015655   9.7289 350.4240 15.09630643333770
EAGLET 1
1 43790U 18099AJ  25010.39202614  .00005185  00000-0  35177-3 0  9990
2 43790  97.5015  68.5473 0012424 350.7657   9.3340 15.06785773333435
ESEO
1 43792U 18099AL  25010.52140084  .00002387  00000-0  18857-3 0  9996
2 43792  97.4758  63.8320 0007150 311.1639  48.8969 15.01584162333293
CSIM
1 43793U 18099AM  25010.47188464  .00052529  00000-0  14597-2 0  9994
2 43793  97.5083  81.8157 0007869 305.5518  54.4992 15.36665311334355
JO-97
1 43803U 18099AX  25010.11908269  .00015521  00000-0  82571-3 0  9999
2 43803  97.4926  70.9267 0007533 316.4613  43.6024 15.15319485333943
Suomi 100
1 43804U 18099AY  25010.12846683  .00012628  00000-0  70374-3 0  9995
2 43804  97.4987  70.5673 0012702 314.7844  45.2353 15.13668811333906
ISAT
1 43879U 18111D   25010.50678001  .00024007  00000-0  10742-2 0  9997
2 43879  97.6063 282.4670 0011550  15.4150 344.7435 15.21228423330816
UWE-4
1 43880U 18111E   25010.24030401  .00017830  00000-0  85497-3 0  9992
2 43880  97.5995 281.5337 0015183  22.7915 337.3990 15.18860471330755
Sparrow
1 43881U 18111F   25010.26008099  .00020612  00000-0  90214-3 0  9998
2 43881  97.6180 284.5966 0010479  52.3425 307.8760 15.22027126330857
Prox-1
1 44339U 19036A   25010.55879896  .00016197  00000-0  23275-2 0  9992
2 44339  23.9992 323.5701 0007985 168.8926 191.1747 14.74785318295801
SONATE
1 44400U 19038Q   25010.48286545  .00048879  00000-0  75398-3 0  9994
2 44400  97.7114  22.5446 0013689  82.3268 277.9539 15.53900583306035
